[[{"header":{"parameterUnit":"m.s-1","parameterCategory":1,"la1":30.2991,"la2":30.254,"lo1":-89.0895,"lo2":-89.0444,"dy":0.0017,"dx":0.0017,"nx":28,"ny":28,"refTime":"2023-10-11T21:00:00:Z","depth":0,"parameterNumber":2,"parameterNumberName":"U-component_of_WINDS"},"data":[0,0,0,0,0,0,0,0,0,0,0,0,0,0,0,0,0,0,0,0,0,0,0,0,0,0,0,0,0,0,0,0,0,0,0,0,0,0,0,0,0,0,0,0,0,0,0,0,0,0,0,0,0,0,0,0,0,0,0.1715,0.1715,0,0.1795,0.1796,0.1797,0.1808,0.1807,0.1807,0.1806,0.1893,0.1896,0.1899,0,0,0,0,0,0,0,0,0,0,0,0,0,0.1575,0.1578,0.1715,0.1716,0.1717,0.1795,0.1796,0.1797,0.1808,0.1807,0.1806,0.1806,0.1892,0.1896,0.1899,0,0,0,0,0,0,0,0,0,0,0,0,0,0.1644,0.1578,0.1714,0.1731,0.1734,0.1795,0.1796,0.1798,0.1808,0.1807,0.1806,0.1805,0.1891,0.1895,0.19,0.1951,0,0,0.1914,0.1916,0,0,0,0,0,0,0,0,0.164,0.1649,0.1728,0.173,0.1733,0.179,0.1779,0.1849,0.1809,0.178,0.1806,0.1805,0.186,0.1867,0.1885,0.1955,0.1959,0.1914,0.1917,0.1919,0.192,0,0,0,0,0,0,0,0.1635,0.1646,0.1747,0.1729,0.1732,0.1737,0.1745,0.1792,0.1826,0.1783,0.1784,0.1793,0.1861,0.1881,0.1887,0.196,0.1914,0.1918,0.1921,0.1923,0.2078,0.2079,0,0,0,0,0,0,0.1627,0.1641,0.1744,0.1749,0.1683,0.174,0.175,0.1773,0.1825,0.1832,0.1794,0.1793,0.1873,0.1882,0.189,0.1954,0.1919,0.1923,0.1926,0.2077,0.2078,0.208,0,0,0,0,0,0,0.1624,0.1636,0.1741,0.1696,0.1709,0.1744,0.177,0.1775,0.1794,0.1834,0.184,0.1807,0.1873,0.1884,0.1936,0.1957,0.1925,0.1929,0.2075,0.2077,0.2079,0.2082,0,0,0,0,0,0,0.1619,0.1634,0.1653,0.1696,0.1712,0.1783,0.1771,0.1778,0.1802,0.1802,0.1848,0.1854,0.1873,0.1929,0.194,0.1963,0.1933,0.2073,0.2076,0.2078,0.208,0.2084,0.2087,0,0,0,0,0,0.1614,0.1651,0.1654,0.1666,0.1735,0.1785,0.1794,0.1813,0.1803,0.1823,0.1849,0.1853,0.1953,0.1934,0.1947,0.1972,0.2072,0.2075,0.2078,0.2079,0.2083,0.2087,0,0,0,0,0,0,0.1611,0.1657,0.166,0.1712,0.1744,0.1786,0.1812,0.1817,0.1854,0.1852,0.1876,0.1887,0.1938,0.196,0.1938,0.2025,0.2012,0.2018,0.2008,0.2013,0.2016,0.201,0.1937,0,0,0,0,0,0.1616,0.1651,0.169,0.1732,0.1748,0.1777,0.1799,0.1811,0.1846,0.186,0.1889,0.1924,0.1964,0.199,0.2028,0.2084,0.2095,0.2107,0.2111,0.2113,0.2118,0.215,0.2157,0.209,0.209,0.209,0,0,0.1627,0.1657,0.1678,0.1732,0.1758,0.1795,0.1788,0.1828,0.1856,0.1867,0.1917,0.194,0.1981,0.2035,0.206,0.2055,0.2139,0.2117,0.2119,0.2123,0.2154,0.216,0.2166,0.2092,0.2092,0.2091,0,0,0.1667,0.1692,0.173,0.1756,0.1796,0.1815,0.1825,0.1866,0.1881,0.1932,0.1941,0.1976,0.2044,0.2073,0.2096,0.2148,0.2154,0.216,0.2179,0.221,0.2215,0.222,0.2239,0.2245,0.2165,0.2165,0.2165,0,0.1676,0.173,0.1749,0.1788,0.1812,0.1823,0.1862,0.1888,0.1939,0.1956,0.1949,0.2034,0.2063,0.2124,0.2137,0.2156,0.2168,0.2155,0.2212,0.2217,0.2222,0.2241,0.2248,0.2165,0.2165,0.2165,0.2165,0,0.174,0.1778,0.1804,0.1852,0.1879,0.1918,0.1944,0.197,0.1981,0.2001,0.2054,0.2088,0.2134,0.215,0.2161,0.2214,0.2209,0.2207,0.2195,0.2229,0.2246,0.2254,0.2166,0.2166,0.2166,0.2166,0,0,0.1779,0.1836,0.1846,0.1868,0.1913,0.1944,0.1984,0.2028,0.205,0.2085,0.2121,0.2178,0.2177,0.2203,0.2218,0.2245,0.2285,0.224,0.2241,0.2247,0.2346,0.2347,0.2355,0.2289,0.229,0.2291,0.2343,0,0.1823,0.1894,0.1912,0.1973,0.2009,0.2021,0.2056,0.2089,0.211,0.2145,0.2169,0.2209,0.2203,0.222,0.2247,0.2274,0.2305,0.227,0.2323,0.2325,0.2312,0.2364,0.2365,0.2412,0.235,0.2351,0.2352,0,0.1884,0.192,0.1984,0.2025,0.2041,0.2072,0.2114,0.2147,0.2185,0.2199,0.2229,0.2241,0.2285,0.2271,0.2334,0.231,0.2333,0.2349,0.2352,0.2357,0.234,0.2371,0.2427,0.2434,0.2363,0.2362,0.2361,0,0.1907,0.197,0.2017,0.2036,0.2085,0.2107,0.2129,0.2165,0.2191,0.2228,0.2246,0.2288,0.2312,0.2346,0.237,0.2357,0.2431,0.2418,0.2444,0.2444,0.2459,0.2458,0.252,0.2474,0.2474,0.2474,0.2473,0,0.1954,0.1993,0.2027,0.2056,0.2101,0.2123,0.2167,0.2189,0.2222,0.2257,0.227,0.2302,0.2332,0.2369,0.2388,0.2438,0.2449,0.2462,0.2466,0.246,0.2459,0.2476,0.2473,0.2475,0.2475,0.2475,0.2474,0,0.1986,0.2011,0.2062,0.2105,0.2116,0.2147,0.2185,0.2214,0.2235,0.2279,0.2291,0.2325,0.237,0.2397,0.2454,0.2467,0.2521,0.2525,0.2508,0.251,0.2535,0.2532,0.261,0.2621,0.2567,0.2568,0.2568,0,0.2015,0.2045,0.209,0.2114,0.2136,0.2173,0.2199,0.2223,0.225,0.2296,0.232,0.2365,0.2402,0.2473,0.2504,0.2548,0.2553,0.2577,0.2559,0.2553,0.2553,0.2551,0.2555,0.258,0.258,0.2581,0.2581,0,0.2063,0.2074,0.211,0.2151,0.2181,0.2215,0.2248,0.2267,0.2297,0.2327,0.2372,0.2401,0.2458,0.2503,0.255,0.2574,0.2583,0.2586,0.2595,0.2589,0.2578,0.2584,0.2516,0.2584,0.2584,0.2584,0.2583,0.2583,0.2095,0.2122,0.2159,0.2199,0.2226,0.2258,0.2287,0.2313,0.235,0.2397,0.241,0.2457,0.2496,0.256,0.2585,0.2624,0.262,0.2632,0.2635,0.2638,0.2639,0.2572,0.2632,0.2632,0.2632,0.2632,0.2632,0,0.2144,0.2168,0.2205,0.2251,0.2283,0.2287,0.2325,0.2352,0.2393,0.2428,0.2464,0.2516,0.256,0.2595,0.2641,0.2665,0.267,0.2676,0.2675,0.268,0.2639,0.2627,0.2671,0.2671,0.2671,0.2671,0.2671,0.2671,0.2174,0.222,0.2236,0.2297,0.2322,0.2367,0.2388,0.2418,0.2446,0.2503,0.2539,0.2561,0.2596,0.2645,0.2686,0.2695,0.2712,0.2717,0.2727,0.2688,0.2683,0.2679,0.2668,0.272,0.272,0.2765,0.2766,0.2766]},{"header":{"parameterUnit":"m.s-1","parameterCategory":1,"la1":30.2991,"la2":30.254,"lo1":-89.0895,"lo2":-89.0444,"dy":0.0017,"dx":0.0017,"nx":28,"ny":28,"refTime":"2023-10-11T21:00:00:Z","depth":0,"parameterNumber":3,"parameterNumberName":"V-component_of_WINDS"},"data":[0,0,0,0,0,0,0,0,0,0,0,0,0,0,0,0,0,0,0,0,0,0,0,0,0,0,0,0,0,0,0,0,0,0,0,0,0,0,0,0,0,0,0,0,0,0,0,0,0,0,0,0,0,0,0,0,0,0,0.0468,0.0467,0,0.0357,0.0356,0.0355,0.0315,0.0315,0.0315,0.0316,0.0198,0.0195,0.0191,0,0,0,0,0,0,0,0,0,0,0,0,0,0.064,0.0637,0.0468,0.0467,0.0465,0.0358,0.0356,0.0354,0.0315,0.0315,0.0316,0.0316,0.0199,0.0195,0.0191,0,0,0,0,0,0,0,0,0,0,0,0,0,0.0551,0.0636,0.0468,0.0433,0.0428,0.0358,0.0356,0.0354,0.0315,0.0315,0.0316,0.0316,0.0201,0.0196,0.0191,0.0146,0,0,0.0175,0.0172,0,0,0,0,0,0,0,0,0.0556,0.0545,0.0439,0.0435,0.043,0.0351,0.0374,0.0284,0.0314,0.0358,0.0316,0.0317,0.0248,0.0239,0.0217,0.0141,0.0136,0.0174,0.0171,0.0169,0.0167,0,0,0,0,0,0,0,0.0562,0.0549,0.0424,0.0438,0.0432,0.042,0.0408,0.0356,0.0301,0.0354,0.0351,0.0338,0.0246,0.0222,0.0214,0.0134,0.0174,0.017,0.0166,0.0164,0.0013,0.0012,0,0,0,0,0,0,0.0575,0.0555,0.0428,0.0421,0.0496,0.0417,0.0403,0.0375,0.0301,0.0291,0.0338,0.0337,0.0231,0.022,0.021,0.0151,0.0169,0.0164,0.0161,0.0014,0.0013,0.0012,0,0,0,0,0,0,0.0579,0.0564,0.0432,0.0487,0.0469,0.0413,0.0382,0.0373,0.0349,0.0289,0.0279,0.0324,0.0231,0.0217,0.0162,0.0146,0.0161,0.0157,0.0015,0.0014,0.0013,0.0035,0,0,0,0,0,0,0.0584,0.0566,0.055,0.0487,0.0466,0.0388,0.0381,0.037,0.0341,0.0338,0.0274,0.0263,0.023,0.017,0.0157,0.0139,0.0152,0.0016,0.0014,0.0013,0.0035,0.0034,0.0034,0,0,0,0,0,0.0591,0.056,0.0549,0.0534,0.0445,0.0387,0.0375,0.0339,0.034,0.0322,0.0283,0.0265,0.0151,0.0165,0.0149,0.013,0.0017,0.0015,0.0013,0.0035,0.0034,0.0034,0,0,0,0,0,0,0.0622,0.0551,0.0538,0.0487,0.0444,0.0381,0.0357,0.0339,0.0294,0.0293,0.0249,0.0234,0.0182,0.0151,0.0168,0.0082,0.0082,0.0077,0.0105,0.0103,0.0102,0.011,0.0148,0,0,0,0,0,0.0623,0.0583,0.0523,0.0483,0.0462,0.0414,0.0387,0.0363,0.0315,0.0296,0.0254,0.0207,0.016,0.013,0.0084,0.0031,0.0014,0.001,0.0009,0.0009,0.0004,-0.0029,-0.0032,0.0006,0.0006,0.0006,0,0,0.0624,0.0581,0.0558,0.0489,0.0452,0.041,0.0399,0.0355,0.0323,0.0289,0.0235,0.0202,0.0146,0.0092,0.0065,0.0064,-0.001,0.0006,0.0006,0.0002,-0.0031,-0.0035,-0.0038,0.0004,0.0005,0.0005,0,0,0.0605,0.0569,0.0531,0.0495,0.044,0.0408,0.0399,0.0338,0.0315,0.026,0.0233,0.0193,0.0114,0.0075,0.0045,0.001,-0.0009,-0.0004,-0.0008,-0.004,-0.0043,-0.0046,-0.0061,-0.0065,-0.0008,-0.0008,-0.0007,0,0.0613,0.055,0.0514,0.0471,0.044,0.0409,0.0369,0.0335,0.0267,0.0246,0.0245,0.0144,0.0105,0.004,0.0031,0.0008,-0.0005,0.0003,-0.0039,-0.0042,-0.0046,-0.0061,-0.0066,-0.0007,-0.0007,-0.0007,-0.0007,0,0.0562,0.0519,0.0494,0.043,0.0397,0.0356,0.0311,0.0281,0.0259,0.0227,0.0169,0.0121,0.0064,0.0047,0.0025,-0.0023,-0.0022,-0.003,-0.0031,-0.0048,-0.0063,-0.0069,-0.0006,-0.0006,-0.0006,-0.0006,0,0,0.0559,0.0475,0.0467,0.0436,0.0373,0.0338,0.0294,0.0239,0.0213,0.0167,0.0128,0.0061,0.0053,0.0019,-0.0008,-0.0035,-0.0063,-0.004,-0.0043,-0.0045,-0.0122,-0.0117,-0.0122,-0.0075,-0.0076,-0.0077,-0.0118,0,0.053,0.0453,0.0418,0.0355,0.0313,0.0282,0.0244,0.02,0.0167,0.0126,0.009,0.0042,0.0036,0.0015,-0.0013,-0.0053,-0.0079,-0.0051,-0.0115,-0.0116,-0.0102,-0.013,-0.0124,-0.016,-0.0123,-0.0124,-0.0125,0,0.0486,0.0441,0.0374,0.0314,0.0295,0.0261,0.0206,0.0168,0.0116,0.0094,0.0056,0.003,-0.0019,-0.0015,-0.0085,-0.0065,-0.0093,-0.0117,-0.0119,-0.0128,-0.0123,-0.0142,-0.0172,-0.0178,-0.0134,-0.0133,-0.0133,0,0.0488,0.041,0.036,0.0335,0.0264,0.024,0.021,0.0159,0.0127,0.0079,0.0057,0.0004,-0.0026,-0.0068,-0.0108,-0.0101,-0.0175,-0.0174,-0.0196,-0.0195,-0.0212,-0.0211,-0.0249,-0.0226,-0.0226,-0.0226,-0.0226,0,0.0459,0.0418,0.0359,0.0328,0.0281,0.0241,0.0195,0.0161,0.0116,0.0076,0.0046,0.0009,-0.0041,-0.0085,-0.0117,-0.0171,-0.0184,-0.0204,-0.0213,-0.0203,-0.0201,-0.0224,-0.0223,-0.0227,-0.0227,-0.0227,-0.0226,0,0.0453,0.0412,0.0354,0.0292,0.0275,0.0243,0.0188,0.0155,0.0122,0.0071,0.0057,0.0003,-0.005,-0.0094,-0.0164,-0.0186,-0.0244,-0.0252,-0.0226,-0.0231,-0.0252,-0.025,-0.0308,-0.0319,-0.0286,-0.0286,-0.0287,0,0.0436,0.0404,0.0338,0.0309,0.0279,0.0234,0.0201,0.0159,0.0126,0.0064,0.0038,-0.0018,-0.0065,-0.0149,-0.0196,-0.025,-0.0262,-0.0278,-0.027,-0.026,-0.0265,-0.0263,-0.0268,-0.028,-0.028,-0.028,-0.028,0,0.0409,0.039,0.0345,0.0292,0.0254,0.021,0.0165,0.0143,0.0093,0.0057,0.0002,-0.0034,-0.0106,-0.0162,-0.0222,-0.0256,-0.0278,-0.0282,-0.0291,-0.0282,-0.0267,-0.0278,-0.0231,-0.0281,-0.0281,-0.0281,-0.0281,-0.0281,0.0395,0.0365,0.0313,0.0263,0.0225,0.0183,0.0149,0.011,0.0064,0.0003,-0.0019,-0.0076,-0.013,-0.0212,-0.0246,-0.0293,-0.0295,-0.0307,-0.031,-0.0313,-0.0313,-0.0257,-0.0304,-0.0304,-0.0304,-0.0304,-0.0304,0,0.0365,0.033,0.0284,0.0223,0.0182,0.0168,0.0117,0.0083,0.0034,-0.0013,-0.0059,-0.0123,-0.0178,-0.0229,-0.0287,-0.0314,-0.0326,-0.0328,-0.0328,-0.0336,-0.0307,-0.0295,-0.0318,-0.0318,-0.0318,-0.0318,-0.0318,-0.0318,0.0345,0.0291,0.0266,0.0192,0.0157,0.0101,0.0073,0.0034,-0.0005,-0.0075,-0.012,-0.0153,-0.0202,-0.0264,-0.0316,-0.033,-0.0351,-0.0351,-0.0368,-0.034,-0.0338,-0.0336,-0.0325,-0.0355,-0.0355,-0.0394,-0.0394,-0.0394]}]]